Starlink 4421

operational
NORAD ID: 53488 Int'l Des: 2022-099 Owner: SPXS Country: US Constellation: starlink
LEOCIRCULARRETROGRADESSO

About Starlink 4421

Description loading...

Live Position

Loading 3D Globe...

Upcoming Passes

Altitude History

Altitude vs Time

uPlot chart will show altitude changes over time

Two-Line Element Set

1 53488U 22099Z 26061.58887638 .00010144 00000-0 70587-3 0 9998
2 53488 97.6039 184.2806 0000978 197.0552 163.0642 15.05669956194981
Epoch: Mar 2, 2026 • Age: 30 hours

Current Status

Altitude 571.2 km
Velocity 7.57 km/s
Sub-Earth Point -55.57°S, 52.44°W
Launch Date Aug 12, 2022
Age 3.5 years
Type internet

Technical Details

Classification Payload
Mass 300.00 kg
Dry Mass 275.00 kg
Total Mass 300.00 kg
Length 0.20 m
Diameter 2.80 m
Span 9.00 m
Shape Box + pan
Manufacturer SPXS
Bus Type Starlink
Phase Status In Orbit
Owner/State SPXS/US

Large Constellations

Loading constellations...